WMT7979 LUKK-LZIB

Flight info

Callsign WMT7979
Flight time 1h 24m
Altitude 36000
Route NUNTA DCT REPTO DCT PITOK DCT KALIF DCT SLC/N0364F240 N190 NIT
Aircraft A21N/M-SDE2E3FGHIRWXY/LB1

Departure

Time 2026-05-04 17:35
Airport Chişinău International Airport (LUKK)

Arrival

Time 2026-05-04 18:59
Airport M. R. Štefánik Airport (LZIB)
Time Latitude Longitude Altitude Speed Heading
2026-05-04 17:19 46.93374 28.93542 334 ft 0 kts
2026-05-04 17:27 46.93392 28.93543 333 ft 4 kts 357°
2026-05-04 17:27 46.93423 28.93467 338 ft 9 kts 276°
2026-05-04 17:28 46.93441 28.93274 348 ft 10 kts 278°
2026-05-04 17:29 46.93465 28.93021 350 ft 9 kts 274°
2026-05-04 17:29 46.93428 28.92757 356 ft 7 kts 186°
2026-05-04 17:30 46.93222 28.92566 357 ft 18 kts 277°
2026-05-04 17:31 46.93252 28.92210 367 ft 17 kts 277°
2026-05-04 17:31 46.93108 28.91992 373 ft 17 kts 187°
2026-05-04 17:32 46.92893 28.91995 383 ft 0 kts 178°
2026-05-04 17:33 46.92892 28.91995 383 ft 1 kts 178°
2026-05-04 17:34 46.92759 28.92116 383 ft 16 kts 89°
2026-05-04 17:34 46.92773 28.92763 364 ft 110 kts 89°
2026-05-04 17:35 46.93045 28.97822 2340 ft 180 kts 74°
2026-05-04 17:35 46.94665 29.01293 3609 ft 244 kts 58°
2026-05-04 17:35 46.95419 29.03693 4373 ft 274 kts 69°
2026-05-04 17:36 46.95869 29.06530 5282 ft 298 kts 78°
2026-05-04 17:36 46.96311 29.09542 6492 ft 303 kts 66°
2026-05-04 17:36 46.97479 29.11984 8296 ft 288 kts 42°
2026-05-04 17:36 46.98810 29.14092 10161 ft 279 kts 52°
2026-05-04 17:37 46.99976 29.16350 11616 ft 279 kts 48°
2026-05-04 17:37 47.01265 29.18506 12877 ft 286 kts 44°
2026-05-04 17:37 47.02933 29.20155 13984 ft 297 kts 21°
2026-05-04 17:37 47.05011 29.20626 15005 ft 311 kts
2026-05-04 17:38 47.07207 29.20403 16062 ft 321 kts 357°
2026-05-04 17:38 47.09456 29.20075 17144 ft 328 kts 356°
2026-05-04 17:38 47.11724 29.19409 18190 ft 338 kts 346°
2026-05-04 17:38 47.13899 29.17955 19106 ft 352 kts 329°
2026-05-04 17:39 47.16770 29.12002 20939 ft 380 kts 284°
2026-05-04 17:39 47.17064 29.08110 21892 ft 387 kts 273°
2026-05-04 17:39 47.16996 29.04132 22824 ft 393 kts 267°
2026-05-04 17:40 47.16747 29.00113 23701 ft 397 kts 265°
2026-05-04 17:40 47.16436 28.96058 24429 ft 400 kts 264°
2026-05-04 17:40 47.16128 28.91976 25183 ft 402 kts 265°
2026-05-04 17:40 47.15849 28.87880 25913 ft 404 kts 265°
2026-05-04 17:41 47.15600 28.83762 26614 ft 406 kts 266°
2026-05-04 17:41 47.15374 28.79613 27291 ft 408 kts 266°
2026-05-04 17:41 47.15231 28.76850 27690 ft 411 kts 266°
2026-05-04 17:41 47.15021 28.72635 28238 ft 415 kts 266°
2026-05-04 17:42 47.14811 28.68397 28918 ft 416 kts 266°
2026-05-04 17:42 47.14600 28.64149 29524 ft 418 kts 266°
2026-05-04 17:42 47.14383 28.59866 30087 ft 421 kts 266°
2026-05-04 17:42 47.14162 28.55558 30550 ft 424 kts 266°
2026-05-04 17:43 47.13937 28.51238 31144 ft 422 kts 265°
2026-05-04 17:43 47.13712 28.46960 31828 ft 419 kts 265°
2026-05-04 17:43 47.13487 28.42721 32470 ft 415 kts 265°
2026-05-04 17:43 47.13262 28.38501 33099 ft 413 kts 265°
2026-05-04 17:44 47.13038 28.34308 33704 ft 410 kts 265°
2026-05-04 17:44 47.12814 28.30149 34237 ft 408 kts 265°
2026-05-04 17:44 47.12587 28.25988 34620 ft 409 kts 265°
2026-05-04 17:44 47.12359 28.21814 34931 ft 412 kts 265°
2026-05-04 17:45 47.12127 28.17617 35290 ft 412 kts 265°
2026-05-04 17:45 47.11897 28.13474 35668 ft 413 kts 265°
2026-05-04 17:45 47.11662 28.09256 35965 ft 415 kts 265°
2026-05-04 17:45 47.11423 28.05035 36022 ft 414 kts 265°
2026-05-04 17:46 47.10942 27.96608 36022 ft 414 kts 265°
2026-05-04 17:46 47.10899 27.88195 36019 ft 413 kts 277°
2026-05-04 17:47 47.12088 27.79966 36019 ft 412 kts 285°
2026-05-04 17:47 47.13669 27.71870 36021 ft 413 kts 287°
2026-05-04 17:48 47.15359 27.63804 36020 ft 413 kts 288°
2026-05-04 17:48 47.17029 27.55735 36021 ft 413 kts 287°
2026-05-04 17:49 47.18640 27.47640 36020 ft 413 kts 287°
2026-05-04 17:49 47.20219 27.39528 36019 ft 414 kts 287°
2026-05-04 17:50 47.21796 27.31372 36021 ft 415 kts 287°
2026-05-04 17:50 47.23360 27.23263 36018 ft 415 kts 287°
2026-05-04 17:51 47.24931 27.15093 36017 ft 415 kts 287°
2026-05-04 17:51 47.26497 27.06913 36017 ft 415 kts 287°
2026-05-04 17:52 47.28059 26.98718 36019 ft 415 kts 287°
2026-05-04 17:52 47.29615 26.90516 36014 ft 416 kts 287°
2026-05-04 17:53 47.31166 26.82312 36014 ft 416 kts 287°
2026-05-04 17:53 47.32710 26.74103 36017 ft 416 kts 287°
2026-05-04 17:54 47.34251 26.65879 36017 ft 416 kts 287°
2026-05-04 17:54 47.35784 26.57658 36017 ft 416 kts 287°
2026-05-04 17:55 47.37140 26.49378 36012 ft 417 kts 275°
2026-05-04 17:55 47.36952 26.45109 36027 ft 419 kts 261°
2026-05-04 17:55 47.36300 26.40911 36026 ft 421 kts 257°
2026-05-04 17:56 47.34827 26.32544 36028 ft 422 kts 257°
2026-05-04 17:56 47.33339 26.24172 36044 ft 422 kts 257°
2026-05-04 17:57 47.31846 26.15819 36031 ft 421 kts 257°
2026-05-04 17:57 47.30333 26.07457 36042 ft 423 kts 257°
2026-05-04 17:58 47.28824 25.99135 36056 ft 423 kts 257°
2026-05-04 17:58 47.27293 25.90709 36057 ft 423 kts 257°
2026-05-04 17:59 47.26296 25.82281 36060 ft 419 kts 271°
2026-05-04 17:59 47.27081 25.73859 36069 ft 415 kts 287°
2026-05-04 18:00 47.27878 25.69769 36068 ft 415 kts 289°
2026-05-04 18:00 47.29698 25.61702 36074 ft 415 kts 291°
2026-05-04 18:01 47.31563 25.53658 36074 ft 415 kts 290°
2026-05-04 18:01 47.33388 25.45582 36074 ft 415 kts 290°
2026-05-04 18:02 47.36069 25.33435 36077 ft 415 kts 290°
2026-05-04 18:02 47.37845 25.25327 36074 ft 415 kts 290°
2026-05-04 18:03 47.39614 25.17221 36075 ft 415 kts 290°
2026-05-04 18:03 47.41381 25.09099 36076 ft 415 kts 290°
2026-05-04 18:04 47.43139 25.00992 36078 ft 415 kts 290°
2026-05-04 18:05 47.45758 24.88851 36071 ft 415 kts 290°
2026-05-04 18:05 47.47500 24.80732 36076 ft 414 kts 290°
2026-05-04 18:06 47.50103 24.68548 36074 ft 414 kts 289°
2026-05-04 18:06 47.51831 24.60417 36075 ft 414 kts 289°
2026-05-04 18:07 47.53552 24.52291 36057 ft 414 kts 289°
2026-05-04 18:07 47.55267 24.44156 36074 ft 414 kts 289°
2026-05-04 18:08 47.56975 24.36019 36070 ft 414 kts 289°
2026-05-04 18:08 47.58669 24.27922 36083 ft 414 kts 289°
2026-05-04 18:09 47.62060 24.11607 36082 ft 414 kts 289°
2026-05-04 18:10 47.63745 24.03454 36079 ft 413 kts 289°
2026-05-04 18:10 47.65421 23.95312 36076 ft 413 kts 289°
2026-05-04 18:11 47.67090 23.87165 36064 ft 413 kts 289°
2026-05-04 18:11 47.68753 23.79021 36056 ft 412 kts 289°
2026-05-04 18:12 47.70410 23.70869 36054 ft 412 kts 289°
2026-05-04 18:12 47.72061 23.62711 36048 ft 412 kts 289°
2026-05-04 18:13 47.73692 23.54621 36046 ft 411 kts 289°
2026-05-04 18:14 47.76155 23.42342 36061 ft 412 kts 289°
2026-05-04 18:14 47.77782 23.34189 36052 ft 411 kts 289°
2026-05-04 18:15 47.81002 23.17943 36050 ft 410 kts 289°
2026-05-04 18:16 47.82606 23.09804 36061 ft 410 kts 289°
2026-05-04 18:16 47.84209 23.01639 36052 ft 410 kts 288°
2026-05-04 18:17 47.86594 22.89412 36051 ft 409 kts 289°
2026-05-04 18:18 47.88963 22.77197 36051 ft 409 kts 289°
2026-05-04 18:18 47.90538 22.69034 36052 ft 409 kts 289°
2026-05-04 18:19 47.92884 22.56807 36049 ft 409 kts 289°
2026-05-04 18:19 47.94438 22.48660 36054 ft 408 kts 289°
2026-05-04 18:20 47.95987 22.40507 36049 ft 408 kts 288°
2026-05-04 18:20 47.97519 22.32412 36051 ft 408 kts 288°
2026-05-04 18:21 47.99053 22.24267 36048 ft 408 kts 288°
2026-05-04 18:21 48.00582 22.16117 36045 ft 407 kts 288°
2026-05-04 18:22 48.02103 22.07976 36047 ft 406 kts 288°
2026-05-04 18:22 48.03614 21.99844 36048 ft 406 kts 288°
2026-05-04 18:23 48.05121 21.91704 36047 ft 406 kts 288°
2026-05-04 18:23 48.06624 21.83552 36047 ft 406 kts 288°
2026-05-04 18:24 48.08119 21.75405 36042 ft 406 kts 287°
2026-05-04 18:24 48.09605 21.67271 36047 ft 405 kts 287°
2026-05-04 18:25 48.11084 21.59137 36047 ft 405 kts 287°
2026-05-04 18:25 48.12556 21.51002 36045 ft 405 kts 287°
2026-05-04 18:26 48.13777 21.44232 36045 ft 405 kts 287°
2026-05-04 18:26 48.15240 21.36088 36046 ft 405 kts 287°
2026-05-04 18:27 48.16696 21.27943 36045 ft 405 kts 287°
2026-05-04 18:27 48.18146 21.19790 36045 ft 405 kts 287°
2026-05-04 18:28 48.19593 21.11623 36045 ft 405 kts 287°
2026-05-04 18:28 48.21032 21.03463 36045 ft 405 kts 287°
2026-05-04 18:29 48.22465 20.95303 36046 ft 405 kts 286°
2026-05-04 18:29 48.23883 20.87186 36049 ft 405 kts 286°
2026-05-04 18:30 48.26013 20.74927 36047 ft 405 kts 286°
2026-05-04 18:31 48.27426 20.66744 36047 ft 405 kts 286°
2026-05-04 18:31 48.28833 20.58555 36053 ft 405 kts 286°
2026-05-04 18:32 48.30235 20.50369 36053 ft 405 kts 285°
2026-05-04 18:32 48.31630 20.42178 36054 ft 405 kts 285°
2026-05-04 18:33 48.33125 20.34027 36053 ft 404 kts 289°
2026-05-04 18:33 48.34942 20.26041 36056 ft 404 kts 290°
2026-05-04 18:34 48.36825 20.18082 36051 ft 404 kts 289°
2026-05-04 18:34 48.37875 20.09818 35711 ft 404 kts 272°
2026-05-04 18:34 48.37847 20.05584 35462 ft 406 kts 269°
2026-05-04 18:35 48.37720 20.01330 35217 ft 407 kts 268°
2026-05-04 18:35 48.37570 19.97080 34897 ft 407 kts 268°
2026-05-04 18:35 48.37414 19.92818 34467 ft 408 kts 268°
2026-05-04 18:35 48.37257 19.88557 34003 ft 409 kts 268°
2026-05-04 18:36 48.37099 19.84285 33496 ft 410 kts 268°
2026-05-04 18:36 48.36941 19.80055 32973 ft 411 kts 268°
2026-05-04 18:36 48.36778 19.75749 32484 ft 412 kts 268°
2026-05-04 18:36 48.36615 19.71460 31990 ft 410 kts 268°
2026-05-04 18:37 48.36451 19.67196 31493 ft 406 kts 268°
2026-05-04 18:37 48.36288 19.62974 31019 ft 403 kts 268°
2026-05-04 18:37 48.36124 19.58786 30550 ft 400 kts 268°
2026-05-04 18:37 48.35960 19.54625 30081 ft 397 kts 268°
2026-05-04 18:38 48.35795 19.50492 29544 ft 395 kts 268°
2026-05-04 18:38 48.35631 19.46384 29014 ft 392 kts 268°
2026-05-04 18:38 48.35468 19.42306 28494 ft 389 kts 268°
2026-05-04 18:38 48.35373 19.38267 27983 ft 385 kts 269°
2026-05-04 18:39 48.35326 19.34254 27477 ft 382 kts 270°
2026-05-04 18:39 48.35284 19.30283 26986 ft 379 kts 270°
2026-05-04 18:39 48.35241 19.26343 26508 ft 376 kts 269°
2026-05-04 18:39 48.35196 19.22440 26032 ft 372 kts 269°
2026-05-04 18:40 48.35149 19.18566 25557 ft 368 kts 269°
2026-05-04 18:40 48.35100 19.14736 25094 ft 365 kts 269°
2026-05-04 18:40 48.35050 19.10931 24641 ft 363 kts 269°
2026-05-04 18:40 48.34998 19.07141 24194 ft 361 kts 269°
2026-05-04 18:41 48.34946 19.03387 23754 ft 359 kts 269°
2026-05-04 18:41 48.34893 18.99652 23256 ft 356 kts 269°
2026-05-04 18:41 48.34838 18.95931 22733 ft 353 kts 269°
2026-05-04 18:41 48.34784 18.92254 22230 ft 351 kts 268°
2026-05-04 18:42 48.34728 18.88605 21723 ft 348 kts 268°
2026-05-04 18:42 48.34672 18.84984 21231 ft 345 kts 268°
2026-05-04 18:42 48.34616 18.81395 20750 ft 343 kts 268°
2026-05-04 18:42 48.34558 18.77826 20280 ft 340 kts 268°
2026-05-04 18:43 48.34500 18.74295 19814 ft 337 kts 268°
2026-05-04 18:43 48.34441 18.70786 19344 ft 335 kts 267°
2026-05-04 18:43 48.34381 18.67302 18885 ft 332 kts 267°
2026-05-04 18:43 48.34321 18.63832 18445 ft 330 kts 267°
2026-05-04 18:44 48.34261 18.60438 17947 ft 328 kts 267°
2026-05-04 18:44 48.34219 18.58128 17608 ft 326 kts 267°
2026-05-04 18:44 48.34137 18.53636 16950 ft 323 kts 267°
2026-05-04 18:44 48.34074 18.50269 16453 ft 321 kts 266°
2026-05-04 18:45 48.34011 18.46933 15968 ft 318 kts 266°
2026-05-04 18:45 48.33948 18.43618 15498 ft 316 kts 266°
2026-05-04 18:45 48.33884 18.40331 15029 ft 314 kts 266°
2026-05-04 18:45 48.33819 18.37061 14573 ft 312 kts 266°
2026-05-04 18:46 48.33754 18.33809 14120 ft 310 kts 265°
2026-05-04 18:46 48.33689 18.30580 13650 ft 308 kts 266°
2026-05-04 18:46 48.33623 18.27381 13160 ft 306 kts 266°
2026-05-04 18:46 48.33556 18.24201 12665 ft 303 kts 266°
2026-05-04 18:47 48.33489 18.21046 12185 ft 301 kts 266°
2026-05-04 18:47 48.33422 18.17912 11692 ft 299 kts 266°
2026-05-04 18:47 48.33355 18.14803 11193 ft 296 kts 266°
2026-05-04 18:47 48.33288 18.11728 10710 ft 292 kts 266°
2026-05-04 18:48 48.33221 18.08708 10225 ft 286 kts 265°
2026-05-04 18:48 48.33155 18.05746 9746 ft 282 kts 265°
2026-05-04 18:48 48.33088 18.02814 9214 ft 280 kts 265°
2026-05-04 18:48 48.33021 17.99898 8706 ft 278 kts 265°
2026-05-04 18:49 48.32953 17.97003 8200 ft 277 kts 265°
2026-05-04 18:49 48.32885 17.94112 7689 ft 275 kts 265°
2026-05-04 18:49 48.32817 17.91247 7216 ft 274 kts 265°
2026-05-04 18:49 48.32748 17.88393 6734 ft 272 kts 265°
2026-05-04 18:50 48.32679 17.85561 6281 ft 270 kts 265°
2026-05-04 18:50 48.32609 17.82753 6044 ft 268 kts 265°
2026-05-04 18:50 48.32538 17.79952 6016 ft 268 kts 265°
2026-05-04 18:50 48.32468 17.77156 6015 ft 267 kts 265°
2026-05-04 18:51 48.32397 17.74374 6013 ft 267 kts 265°
2026-05-04 18:51 48.32326 17.71585 6013 ft 267 kts 265°
2026-05-04 18:51 48.32255 17.68799 6011 ft 266 kts 265°
2026-05-04 18:51 48.32183 17.66017 6011 ft 267 kts 265°
2026-05-04 18:52 48.32112 17.63269 6010 ft 267 kts 265°
2026-05-04 18:52 48.32039 17.60501 5752 ft 262 kts 264°
2026-05-04 18:52 48.31967 17.57766 5093 ft 264 kts 263°
2026-05-04 18:52 48.31892 17.55016 4517 ft 261 kts 263°
2026-05-04 18:53 48.31819 17.52311 4004 ft 257 kts 263°
2026-05-04 18:53 48.31748 17.49672 3675 ft 246 kts 262°
2026-05-04 18:53 48.31682 17.47177 3451 ft 232 kts 262°
2026-05-04 18:53 48.31616 17.44803 3216 ft 225 kts 261°
2026-05-04 18:54 48.31310 17.42537 2960 ft 218 kts 242°
2026-05-04 18:54 48.30498 17.40746 2717 ft 200 kts 223°
2026-05-04 18:54 48.29556 17.39313 2507 ft 185 kts 219°
2026-05-04 18:54 48.28672 17.38049 2479 ft 170 kts 218°
2026-05-04 18:55 48.27815 17.36837 2497 ft 169 kts 218°
2026-05-04 18:55 48.26107 17.34402 2496 ft 169 kts 217°
2026-05-04 18:55 48.25263 17.33188 2448 ft 167 kts 217°
2026-05-04 18:56 48.24427 17.31983 2278 ft 165 kts 217°
2026-05-04 18:56 48.23630 17.30832 2068 ft 158 kts 218°
2026-05-04 18:56 48.22862 17.29719 1879 ft 148 kts 217°
2026-05-04 18:56 48.22142 17.28677 1657 ft 141 kts 217°
2026-05-04 18:57 48.21465 17.27699 1414 ft 130 kts 217°
2026-05-04 18:57 48.20830 17.26789 1190 ft 125 kts 219°
2026-05-04 18:57 48.20195 17.25910 1008 ft 124 kts 219°
2026-05-04 18:57 48.19595 17.24991 849 ft 123 kts 222°
2026-05-04 18:58 48.18970 17.24035 846 ft 129 kts 217°
2026-05-04 18:58 48.18320 17.23163 659 ft 123 kts 220°
2026-05-04 18:58 48.17712 17.22290 467 ft 119 kts 220°
2026-05-04 18:58 48.17166 17.21507 429 ft 89 kts 226°
2026-05-04 18:59 48.16850 17.21045 429 ft 43 kts 224°
2026-05-04 18:59 48.16644 17.20749 441 ft 40 kts 224°
2026-05-04 18:59 48.16613 17.20508 438 ft 25 kts 313°
2026-05-04 18:59 48.16650 17.20451 435 ft 0 kts 314°
2026-05-04 19:03 48.16660 17.20435 438 ft 7 kts 314°
2026-05-04 19:03 48.16712 17.20354 440 ft 13 kts 313°
2026-05-04 19:03 48.16789 17.20237 434 ft 18 kts 314°
2026-05-04 19:03 48.16839 17.20162 439 ft 1 kts 314°
2026-05-04 19:04 48.16850 17.20133 429 ft 5 kts 299°
2026-05-04 19:04 48.16885 17.20073 439 ft 10 kts 314°
2026-05-04 19:04 48.16891 17.20064 431 ft 0 kts 315°
2026-05-04 19:04 48.16896 17.20058 434 ft 1 kts 315°
2026-05-04 19:05 48.16897 17.20055 435 ft 0 kts 315°